WD6AWP Weather Reports


Display with metric or nautical units.
time (UTC)temp
F
wind
direction
speed
MPH
gust
MPH
rain 1hr
in
rain 24hr
in
rain mn
in
humidity
%
barometer
mb
20260509221503 71 267 8.0 15.0 0.00 0.00 0.00 75 1012.0
20260509220002 71 246 5.0 14.0 0.00 0.00 0.00 76 1012.2
20260509214600 71 231 2.0 14.0 0.00 0.00 0.00 76 1012.3
20260509213114 71 225 5.0 13.0 0.00 0.00 0.00 75 1012.4
20260509211603 72 193 2.0 11.0 0.00 0.00 0.00 75 1012.5
20260509210055 71 200 4.0 10.0 0.00 0.00 0.00 75 1012.6
20260509204554 71 197 5.0 10.0 0.00 0.00 0.00 75 1012.7
20260509203051 71 230 4.0 9.0 0.00 0.00 0.00 76 1012.8
20260509201553 71 223 5.0 10.0 0.00 0.00 0.00 76 1013.0
20260509200054 71 225 5.0 10.0 0.00 0.00 0.00 76 1013.1
20260509194557 71 227 4.0 11.0 0.00 0.00 0.00 77 1013.2
20260509193050 71 263 6.0 13.0 0.00 0.00 0.00 76 1013.4
20260509191600 71 262 3.0 11.0 0.00 0.00 0.00 77 1013.5
20260509190048 71 218 4.0 9.0 0.00 0.00 0.00 77 1013.6
20260509184544 71 277 6.0 12.0 0.00 0.00 0.00 78 1013.7
20260509183041 70 224 3.0 8.0 0.00 0.00 0.00 79 1013.7
20260509181538 69 239 3.0 9.0 0.00 0.00 0.00 81 1013.7
20260509180048 67 232 4.0 8.0 0.00 0.00 0.00 82 1013.8
20260509174534 67 203 3.0 7.0 0.00 0.00 0.00 83 1013.8
20260509173036 66 196 2.0 8.0 0.00 0.00 0.00 84 1013.7
20260509171534 66 233 2.0 7.0 0.00 0.00 0.00 85 1013.7
20260509170026 66 159 3.0 7.0 0.00 0.00 0.00 85 1013.6
20260509164525 65 205 1.0 4.0 0.00 0.00 0.00 85 1013.5
20260509163024 65 144 0.0 0.0 0.00 0.00 0.00 85 1013.6
20260509161520 64 133 1.0 4.0 0.00 0.00 0.00 85 1013.6
20260509160019 64 111 0.0 5.0 0.00 0.00 0.00 86 1013.7
20260509154518 64 130 2.0 8.0 0.00 0.00 0.00 87 1013.6
20260509153029 63 150 0.0 0.0 0.00 0.00 0.00 87 1013.7
20260509151514 63 157 0.0 1.0 0.00 0.00 0.00 88 1013.7
20260509150018 63 199 0.0 0.0 0.00 0.00 0.00 89 1013.7
20260509144512 63 205 0.0 3.0 0.00 0.00 0.00 89 1013.7
20260509143011 62 26 0.0 1.0 0.00 0.00 0.00 90 1013.6
20260509141509 62 263 0.0 1.0 0.00 0.00 0.00 90 1013.5
20260509140008 62 268 0.0 0.0 0.00 0.00 0.00 90 1013.5
20260509134507 62 268 0.0 1.0 0.00 0.00 0.00 91 1013.5
20260509133007 62 264 2.0 4.0 0.00 0.00 0.00 91 1013.3
20260509131506 61 260 0.0 4.0 0.00 0.00 0.00 91 1013.1
20260509130006 61 250 0.0 0.0 0.00 0.00 0.00 91 1013.0
20260509124505 61 250 0.0 0.0 0.00 0.00 0.00 91 1012.9
20260509123004 61 250 0.0 0.0 0.00 0.00 0.00 91 1013.0
20260509121503 61 250 0.0 0.0 0.00 0.00 0.00 91 1013.0
20260509120002 61 250 0.0 0.0 0.00 0.00 0.00 91 1013.2
20260509114502 61 250 0.0 0.0 0.00 0.00 0.00 91 1013.0
20260509113002 61 250 0.0 0.0 0.00 0.00 0.00 91 1013.0
20260509111501 61 250 0.0 0.0 0.00 0.00 0.00 91 1013.1
20260509110059 61 250 0.0 4.0 0.00 0.00 0.00 91 1013.1
20260509104604 61 249 1.0 3.0 0.00 0.00 0.00 91 1013.1
20260509103107 61 249 2.0 4.0 0.00 0.00 0.00 91 1013.2
20260509101618 61 242 2.0 5.0 0.00 0.00 0.00 91 1013.2
20260509100059 61 198 0.0 0.0 0.00 0.00 0.00 91 1013.3
20260509094600 61 196 0.0 4.0 0.00 0.00 0.00 91 1013.4
20260509093053 61 196 0.0 2.0 0.00 0.00 0.00 91 1013.6
20260509091555 61 196 1.0 3.0 0.00 0.00 0.00 91 1013.6
20260509090057 61 198 0.0 5.0 0.00 0.00 0.00 91 1013.6
20260509084559 61 196 0.0 3.0 0.00 0.00 0.00 91 1013.7
20260509083103 61 192 0.0 3.0 0.00 0.00 0.00 91 1013.9
20260509081547 61 199 0.0 4.0 0.00 0.00 0.00 91 1014.0
20260509080050 61 208 1.0 4.0 0.00 0.00 0.00 91 1014.1
20260509074606 61 190 0.0 5.0 0.00 0.00 0.00 91 1014.1
20260509073101 61 184 0.0 0.0 0.00 0.00 0.00 91 1014.2
20260509071549 61 131 0.0 3.0 0.00 0.00 0.00 90 1014.2
20260509070047 61 146 1.0 5.0 0.00 0.00 0.00 90 1014.2
20260509064541 61 182 0.0 5.0 0.00 0.00 0.00 90 1014.4
20260509063055 61 199 1.0 4.0 0.00 0.00 0.00 90 1014.6
20260509061540 61 165 3.0 6.0 0.00 0.00 0.00 90 1014.6
20260509060101 61 198 0.0 5.0 0.00 0.00 0.00 90 1014.6
20260509054539 61 238 1.0 4.0 0.00 0.00 0.00 90 1014.6
20260509053052 61 220 2.0 6.0 0.00 0.00 0.00 90 1014.5
20260509051538 61 246 0.0 5.0 0.00 0.00 0.00 90 1014.6
20260509050037 61 259 3.0 9.0 0.00 0.00 0.00 90 1014.5
20260509044536 61 280 3.0 9.0 0.00 0.00 0.00 91 1014.5
20260509043043 61 248 3.0 8.0 0.00 0.00 0.00 91 1014.4
20260509041535 61 260 5.0 11.0 0.00 0.00 0.00 91 1014.2
20260509040040 61 267 2.0 9.0 0.00 0.00 0.00 91 1014.0
20260509034533 62 277 6.0 12.0 0.00 0.00 0.00 90 1013.9
20260509033037 62 273 7.0 12.0 0.00 0.00 0.00 90 1013.8
20260509031531 62 284 7.0 13.0 0.00 0.00 0.00 89 1013.7
20260509030031 62 246 5.0 13.0 0.00 0.00 0.00 89 1013.5
20260509024527 63 267 7.0 14.0 0.00 0.00 0.00 88 1013.3
20260509023027 63 255 7.0 14.0 0.00 0.00 0.00 88 1013.2
20260509021525 64 245 9.0 14.0 0.00 0.00 0.00 86 1013.1
20260509020024 65 268 7.0 15.0 0.00 0.00 0.00 86 1013.1
20260509014527 65 290 5.0 14.0 0.00 0.00 0.00 85 1013.1
20260509013022 66 286 7.0 13.0 0.00 0.00 0.00 83 1013.1
20260509011521 67 226 4.0 14.0 0.00 0.00 0.00 82 1013.1
20260509010029 68 254 3.0 13.0 0.00 0.00 0.00 80 1013.1
20260509004522 68 267 5.0 12.0 0.00 0.00 0.00 79 1013.2
20260509003017 69 287 7.0 12.0 0.00 0.00 0.00 77 1013.1
20260509001516 70 253 5.0 11.0 0.00 0.00 0.00 77 1013.2
20260509000015 70 224 5.0 11.0 0.00 0.00 0.00 77 1013.2
20260508234513 70 261 5.0 11.0 0.00 0.00 0.00 77 1013.3
20260508233012 70 236 4.0 12.0 0.00 0.00 0.00 76 1013.4
20260508231512 70 243 4.0 10.0 0.00 0.00 0.00 76 1013.5
20260508230010 70 252 4.0 14.0 0.00 0.00 0.00 76 1013.6
20260508224518 70 229 6.0 12.0 0.00 0.00 0.00 75 1013.9
20260508223005 70 267 5.0 13.0 0.00 0.00 0.00 76 1014.1